Year,Month,Day,Hour,Minute,Value (Times are PST for temperature in C)
2021,12,03,00,00,0.10
2021,12,03,00,01,0.10
2021,12,03,00,02,0.10
2021,12,03,00,03,0.20
2021,12,03,00,04,0.20
2021,12,03,00,05,0.20
2021,12,03,00,06,0.20
2021,12,03,00,07,0.20
2021,12,03,00,08,0.20
2021,12,03,00,09,0.20
2021,12,03,00,10,0.20
2021,12,03,00,11,0.10
2021,12,03,00,12,0.10
2021,12,03,00,13,0.10
2021,12,03,00,14,0.10
2021,12,03,00,15,0.10
2021,12,03,00,16,0.10
2021,12,03,00,17,0.10
2021,12,03,00,18,0.10
2021,12,03,00,19,0.20
2021,12,03,00,20,0.20
2021,12,03,00,21,0.20
2021,12,03,00,22,0.20
2021,12,03,00,23,0.20
2021,12,03,00,24,0.20
2021,12,03,00,25,0.20
2021,12,03,00,26,0.20
2021,12,03,00,27,0.20
2021,12,03,00,28,0.20
2021,12,03,00,29,0.20
2021,12,03,00,30,0.20
2021,12,03,00,31,0.20
2021,12,03,00,32,0.20
2021,12,03,00,33,0.20
2021,12,03,00,34,0.20
2021,12,03,00,35,0.20
2021,12,03,00,36,0.30
2021,12,03,00,37,0.30
2021,12,03,00,38,0.30
2021,12,03,00,39,0.20
2021,12,03,00,40,0.20
2021,12,03,00,41,0.20
2021,12,03,00,42,0.30
2021,12,03,00,43,0.30
2021,12,03,00,44,0.30
2021,12,03,00,45,0.30
2021,12,03,00,46,0.30
2021,12,03,00,47,0.30
2021,12,03,00,48,0.30
2021,12,03,00,49,0.30
2021,12,03,00,50,0.30
2021,12,03,00,51,0.20
2021,12,03,00,52,0.20
2021,12,03,00,53,0.20
2021,12,03,00,54,0.20
2021,12,03,00,55,0.20
2021,12,03,00,56,0.20
2021,12,03,00,57,0.20
2021,12,03,00,58,0.10
2021,12,03,00,59,0.10
2021,12,03,01,00,0.10
2021,12,03,01,01,0.10
2021,12,03,01,02,0.10
2021,12,03,01,03,0.10
2021,12,03,01,04,0.10
2021,12,03,01,05,0.10
2021,12,03,01,06,0.10
2021,12,03,01,07,0.10
2021,12,03,01,08,0.10
2021,12,03,01,09,0.10
2021,12,03,01,10,0.10
2021,12,03,01,11,0.10
2021,12,03,01,12,0.10
2021,12,03,01,13,0.10
2021,12,03,01,14,0.10
2021,12,03,01,15,0.10
2021,12,03,01,16,0.20
2021,12,03,01,17,0.20
2021,12,03,01,18,0.20
2021,12,03,01,19,0.20
2021,12,03,01,20,0.10
2021,12,03,01,21,0.10
2021,12,03,01,22,0.10
2021,12,03,01,23,0.10
2021,12,03,01,24,0.10
2021,12,03,01,25,0.10
2021,12,03,01,26,0.00
2021,12,03,01,27,0.00
2021,12,03,01,28,0.00
2021,12,03,01,29,-0.10
2021,12,03,01,30,-0.10
2021,12,03,01,31,-0.10
2021,12,03,01,32,-0.10
2021,12,03,01,33,-0.10
2021,12,03,01,34,-0.10
2021,12,03,01,35,-0.10
2021,12,03,01,36,-0.10
2021,12,03,01,37,-0.10
2021,12,03,01,38,-0.10
2021,12,03,01,39,-0.10
2021,12,03,01,40,-0.10
2021,12,03,01,41,-0.10
2021,12,03,01,42,-0.10
2021,12,03,01,43,-0.10
2021,12,03,01,44,-0.10
2021,12,03,01,45,-0.10
2021,12,03,01,46,-0.10
2021,12,03,01,47,0.00
2021,12,03,01,48,0.00
2021,12,03,01,49,0.10
2021,12,03,01,50,0.10
2021,12,03,01,51,0.10
2021,12,03,01,52,0.10
2021,12,03,01,53,0.10
2021,12,03,01,54,0.00
2021,12,03,01,55,0.00
2021,12,03,01,56,0.00
2021,12,03,01,57,0.00
2021,12,03,01,58,0.00
2021,12,03,01,59,0.00
2021,12,03,02,00,-0.10
2021,12,03,02,01,-0.10
2021,12,03,02,02,-0.10
2021,12,03,02,03,-0.10
2021,12,03,02,04,-0.10
2021,12,03,02,05,-0.10
2021,12,03,02,06,-0.10
2021,12,03,02,07,-0.10
2021,12,03,02,08,-0.10
2021,12,03,02,09,-0.10
2021,12,03,02,10,-0.10
2021,12,03,02,11,-0.10
2021,12,03,02,12,0.00
2021,12,03,02,13,0.00
2021,12,03,02,14,0.00
2021,12,03,02,15,0.00
2021,12,03,02,16,-0.10
2021,12,03,02,17,0.00
2021,12,03,02,18,-0.10
2021,12,03,02,19,-0.10
2021,12,03,02,20,-0.10
2021,12,03,02,21,-0.10
2021,12,03,02,22,-0.10
2021,12,03,02,23,-0.10
2021,12,03,02,24,-0.10
2021,12,03,02,25,-0.10
2021,12,03,02,26,-0.10
2021,12,03,02,27,-0.10
2021,12,03,02,28,-0.10
2021,12,03,02,29,-0.10
2021,12,03,02,30,-0.10
2021,12,03,02,31,-0.10
2021,12,03,02,32,-0.10
2021,12,03,02,33,-0.10
2021,12,03,02,34,-0.10
2021,12,03,02,35,-0.20
2021,12,03,02,36,-0.20
2021,12,03,02,37,-0.20
2021,12,03,02,38,-0.20
2021,12,03,02,39,-0.20
2021,12,03,02,40,-0.20
2021,12,03,02,41,-0.20
2021,12,03,02,42,-0.20
2021,12,03,02,43,-0.20
2021,12,03,02,44,-0.20
2021,12,03,02,45,-0.20
2021,12,03,02,46,-0.30
2021,12,03,02,47,-0.30
2021,12,03,02,48,-0.30
2021,12,03,02,49,-0.30
2021,12,03,02,50,-0.30
2021,12,03,02,51,-0.30
2021,12,03,02,52,-0.20
2021,12,03,02,53,-0.20
2021,12,03,02,54,-0.20
2021,12,03,02,55,-0.20
2021,12,03,02,56,-0.20
2021,12,03,02,57,-0.20
2021,12,03,02,58,-0.20
2021,12,03,02,59,-0.20
2021,12,03,03,00,-0.30
2021,12,03,03,01,-0.30
2021,12,03,03,02,-0.30
2021,12,03,03,03,-0.30
2021,12,03,03,04,-0.30
2021,12,03,03,05,-0.40
2021,12,03,03,06,-0.40
2021,12,03,03,07,-0.40
2021,12,03,03,08,-0.40
2021,12,03,03,09,-0.40
2021,12,03,03,10,-0.40
2021,12,03,03,11,-0.40
2021,12,03,03,12,-0.40
2021,12,03,03,13,-0.40
2021,12,03,03,14,-0.40
2021,12,03,03,15,-0.40
2021,12,03,03,16,-0.40
2021,12,03,03,17,-0.40
2021,12,03,03,18,-0.40
2021,12,03,03,19,-0.40
2021,12,03,03,20,-0.40
2021,12,03,03,21,-0.40
2021,12,03,03,22,-0.40
2021,12,03,03,23,-0.40
2021,12,03,03,24,-0.40
2021,12,03,08,47,2.70
2021,12,03,08,48,2.70
2021,12,03,08,49,2.70
2021,12,03,08,50,2.70
2021,12,03,08,51,2.80
2021,12,03,08,52,2.80
2021,12,03,08,53,2.80
2021,12,03,08,54,2.80
2021,12,03,08,55,2.80
2021,12,03,08,56,2.80
2021,12,03,08,57,2.80
2021,12,03,08,58,2.80
2021,12,03,08,59,2.80
2021,12,03,09,00,2.80
2021,12,03,09,01,2.90
2021,12,03,09,02,2.90
2021,12,03,09,03,2.90
2021,12,03,09,04,2.90
2021,12,03,09,05,2.90
2021,12,03,09,06,2.90
2021,12,03,09,07,2.90
2021,12,03,09,08,3.00
2021,12,03,09,09,3.00
2021,12,03,09,10,3.00
2021,12,03,09,11,3.00
2021,12,03,09,12,3.00
2021,12,03,09,13,3.10
2021,12,03,09,14,3.10
2021,12,03,09,15,3.10
2021,12,03,09,16,3.10
2021,12,03,09,17,3.10
2021,12,03,09,18,3.10
2021,12,03,09,19,3.20
2021,12,03,09,20,3.20
2021,12,03,09,21,3.20
2021,12,03,09,22,3.20
2021,12,03,09,23,3.20
2021,12,03,09,24,3.20
2021,12,03,09,25,3.20
2021,12,03,09,26,3.20
2021,12,03,09,27,3.20
2021,12,03,09,28,3.20
2021,12,03,09,29,3.20
2021,12,03,09,30,3.20
2021,12,03,09,31,3.20
2021,12,03,09,32,3.20
2021,12,03,09,33,3.30
2021,12,03,09,34,3.30
2021,12,03,09,35,3.30
2021,12,03,09,36,3.30
2021,12,03,09,37,3.30
2021,12,03,09,38,3.30
2021,12,03,09,39,3.40
2021,12,03,09,40,3.40
2021,12,03,09,41,3.40
2021,12,03,09,42,3.40
2021,12,03,09,43,3.40
2021,12,03,09,44,3.50
2021,12,03,09,45,3.50
2021,12,03,09,46,3.50
2021,12,03,09,47,3.50
2021,12,03,09,48,3.60
2021,12,03,09,49,3.60
2021,12,03,09,50,3.60
2021,12,03,09,51,3.60
2021,12,03,09,52,3.60
2021,12,03,09,53,3.70
2021,12,03,09,54,3.70
2021,12,03,09,55,3.70
2021,12,03,09,56,3.70
2021,12,03,09,57,3.70
2021,12,03,09,58,3.70
2021,12,03,09,59,3.70
2021,12,03,10,00,3.80
2021,12,03,10,01,3.80
2021,12,03,10,02,3.80
2021,12,03,10,03,3.80
2021,12,03,10,04,3.80
2021,12,03,10,05,3.80
2021,12,03,10,06,3.80
2021,12,03,10,07,3.80
2021,12,03,10,08,3.80
2021,12,03,10,09,3.80
2021,12,03,10,10,3.80
2021,12,03,10,11,3.80
2021,12,03,10,12,3.80
2021,12,03,10,13,3.90
2021,12,03,10,14,3.90
2021,12,03,10,15,3.90
2021,12,03,10,16,3.90
2021,12,03,10,17,3.90
2021,12,03,10,18,3.90
2021,12,03,10,19,3.90
2021,12,03,10,20,3.90
2021,12,03,10,21,3.90
2021,12,03,10,22,3.90
2021,12,03,10,23,4.00
2021,12,03,10,24,4.00
2021,12,03,10,25,4.00
2021,12,03,10,26,4.00
2021,12,03,10,27,4.00
2021,12,03,10,28,4.10
2021,12,03,10,29,4.10
2021,12,03,10,30,4.10
2021,12,03,10,31,4.10
2021,12,03,10,32,4.10
2021,12,03,10,33,4.10
2021,12,03,10,34,4.10
2021,12,03,10,35,4.10
2021,12,03,10,36,4.20
2021,12,03,10,37,4.20
2021,12,03,10,38,4.20
2021,12,03,10,39,4.20
2021,12,03,10,40,4.20
2021,12,03,10,41,4.20
2021,12,03,10,42,4.20
2021,12,03,10,43,4.20
2021,12,03,10,44,4.20
2021,12,03,10,45,4.20
2021,12,03,10,46,4.20
2021,12,03,10,47,4.30
2021,12,03,10,48,4.30
2021,12,03,10,49,4.30
2021,12,03,10,50,4.30
2021,12,03,10,51,4.30
2021,12,03,10,52,4.30
2021,12,03,10,53,4.30
2021,12,03,10,54,4.30
2021,12,03,10,55,4.40
2021,12,03,10,56,4.40
2021,12,03,10,57,4.40
2021,12,03,10,58,4.40
2021,12,03,10,59,4.40
2021,12,03,11,00,4.40
2021,12,03,11,01,4.40
2021,12,03,11,02,4.40
2021,12,03,11,03,4.50
2021,12,03,11,04,4.50
2021,12,03,11,05,4.50
2021,12,03,11,06,4.50
2021,12,03,11,07,4.50
2021,12,03,11,08,4.50
2021,12,03,11,09,4.60
2021,12,03,11,10,4.60
2021,12,03,11,11,4.60
2021,12,03,11,12,4.60
2021,12,03,11,13,4.60
2021,12,03,11,14,4.60
2021,12,03,11,15,4.60
2021,12,03,11,16,4.70
2021,12,03,11,17,4.70
2021,12,03,11,18,4.70
2021,12,03,11,19,4.80
2021,12,03,11,20,4.80
2021,12,03,11,21,4.80
2021,12,03,11,22,4.80
2021,12,03,11,23,4.80
2021,12,03,11,24,4.80
2021,12,03,11,25,4.80
2021,12,03,11,26,4.80
2021,12,03,11,27,4.80
2021,12,03,11,28,4.90
2021,12,03,11,29,4.90
2021,12,03,11,30,4.90
2021,12,03,11,31,4.90
2021,12,03,11,32,4.90
2021,12,03,11,33,4.90
2021,12,03,11,34,4.90
2021,12,03,11,35,5.00
2021,12,03,11,36,5.00
2021,12,03,11,37,5.00
2021,12,03,11,38,5.10
2021,12,03,11,39,5.10
2021,12,03,11,40,5.10
2021,12,03,11,41,5.20
2021,12,03,11,42,5.20
2021,12,03,11,43,5.20
2021,12,03,11,44,5.20
2021,12,03,11,45,5.30
2021,12,03,11,46,5.30
2021,12,03,11,47,5.30
2021,12,03,11,48,5.30
2021,12,03,11,49,5.30
2021,12,03,11,50,5.30
2021,12,03,11,51,5.30
2021,12,03,11,52,5.30
2021,12,03,11,53,5.30
2021,12,03,11,54,5.30
2021,12,03,11,55,5.30
2021,12,03,11,56,5.40
2021,12,03,11,57,5.40
2021,12,03,11,58,5.40
2021,12,03,11,59,5.40
2021,12,03,12,00,5.40
2021,12,03,12,01,5.40
2021,12,03,12,02,5.40
2021,12,03,12,03,5.40
2021,12,03,12,04,5.40
2021,12,03,12,05,5.40
2021,12,03,12,06,5.40
2021,12,03,12,07,5.40
2021,12,03,12,08,5.40
2021,12,03,12,09,5.40
2021,12,03,12,10,5.40
2021,12,03,12,11,5.40
2021,12,03,12,12,5.40
2021,12,03,12,13,5.40
2021,12,03,12,14,5.50
2021,12,03,12,15,5.50
2021,12,03,12,16,5.50
2021,12,03,12,17,5.50
2021,12,03,12,18,5.50
2021,12,03,12,19,5.60
2021,12,03,12,20,5.60
2021,12,03,12,21,5.60
2021,12,03,12,22,5.60
2021,12,03,12,23,5.60
2021,12,03,12,24,5.70
2021,12,03,12,25,5.70
2021,12,03,12,26,5.70
2021,12,03,12,27,5.70
2021,12,03,12,28,5.70
2021,12,03,12,29,5.70
2021,12,03,12,30,5.70
2021,12,03,12,31,5.70
2021,12,03,12,32,5.70
2021,12,03,12,33,5.60
2021,12,03,12,34,5.70
2021,12,03,12,35,5.70
2021,12,03,12,36,5.70
2021,12,03,12,37,5.70
2021,12,03,12,38,5.70
2021,12,03,12,39,5.70
2021,12,03,12,40,5.80
2021,12,03,12,41,5.80
2021,12,03,12,42,5.80
2021,12,03,12,43,5.80
2021,12,03,12,44,5.80
2021,12,03,12,45,5.80
2021,12,03,12,46,5.80
2021,12,03,12,47,5.80
2021,12,03,12,48,5.80
2021,12,03,12,49,5.80
2021,12,03,12,50,5.90
2021,12,03,12,51,5.90
2021,12,03,12,52,5.90
2021,12,03,12,53,5.90
2021,12,03,12,54,5.90
2021,12,03,12,55,5.90
2021,12,03,12,56,6.00
2021,12,03,12,57,6.00
2021,12,03,12,58,6.00
2021,12,03,12,59,6.00
2021,12,03,13,00,6.00
2021,12,03,13,01,6.00
2021,12,03,13,02,5.90
2021,12,03,13,03,5.90
2021,12,03,13,04,5.90
2021,12,03,13,05,5.90
2021,12,03,13,06,5.90
2021,12,03,13,07,5.90
2021,12,03,13,08,5.90
2021,12,03,13,09,5.90
2021,12,03,13,10,5.90
2021,12,03,13,11,5.90
2021,12,03,13,12,5.90
2021,12,03,13,13,5.90
2021,12,03,13,14,6.00
2021,12,03,13,15,6.00
2021,12,03,13,16,6.00
2021,12,03,13,17,6.00
2021,12,03,13,18,6.00
2021,12,03,13,19,6.00
2021,12,03,13,20,6.00
2021,12,03,13,21,6.00
2021,12,03,13,22,6.00
2021,12,03,13,23,6.10
2021,12,03,13,24,6.10
2021,12,03,13,25,6.10
2021,12,03,13,26,6.10
2021,12,03,13,27,6.10
2021,12,03,13,28,6.10
2021,12,03,13,29,6.10
2021,12,03,13,30,6.10
2021,12,03,13,31,6.10
2021,12,03,13,32,6.10
2021,12,03,13,33,6.10
2021,12,03,13,34,6.10
2021,12,03,13,35,6.10
2021,12,03,13,36,6.10
2021,12,03,13,37,6.10
2021,12,03,13,38,6.10
2021,12,03,13,39,6.10
2021,12,03,13,40,6.10
2021,12,03,13,41,6.10
2021,12,03,13,42,6.10
2021,12,03,13,43,6.10
2021,12,03,13,44,6.10
2021,12,03,13,45,6.10
2021,12,03,13,46,6.10
2021,12,03,13,47,6.10
2021,12,03,13,48,6.20
2021,12,03,13,49,6.20
2021,12,03,13,50,6.20
2021,12,03,13,51,6.20
2021,12,03,13,52,6.20
2021,12,03,13,53,6.20
2021,12,03,13,54,6.20
2021,12,03,13,55,6.20
2021,12,03,13,56,6.20
2021,12,03,13,57,6.20
2021,12,03,13,58,6.20
2021,12,03,13,59,6.20
2021,12,03,14,00,6.20
2021,12,03,14,01,6.20
2021,12,03,14,02,6.20
2021,12,03,14,03,6.20
2021,12,03,14,04,6.10
2021,12,03,14,05,6.10
2021,12,03,14,06,6.10
2021,12,03,14,07,6.10
2021,12,03,14,08,6.10
2021,12,03,14,09,6.10
2021,12,03,14,10,6.10
2021,12,03,14,11,6.10
2021,12,03,14,12,6.10
2021,12,03,14,13,6.10
2021,12,03,14,14,6.10
2021,12,03,14,15,6.10
2021,12,03,14,16,6.10
2021,12,03,14,17,6.00
2021,12,03,14,18,6.00
2021,12,03,14,19,6.00
2021,12,03,14,20,6.00
2021,12,03,14,21,6.00
2021,12,03,14,22,5.90
2021,12,03,14,23,5.90
2021,12,03,14,24,5.90
2021,12,03,14,25,5.90
2021,12,03,14,26,5.90
2021,12,03,14,27,5.90
2021,12,03,14,28,5.90
2021,12,03,14,29,5.90
2021,12,03,14,30,5.90
2021,12,03,14,31,5.90
2021,12,03,14,32,5.90
2021,12,03,14,33,5.90
2021,12,03,14,34,5.90
2021,12,03,14,35,5.90
2021,12,03,14,36,5.90
2021,12,03,14,37,5.90
2021,12,03,14,38,5.90
2021,12,03,14,39,5.90
2021,12,03,14,40,5.90
2021,12,03,14,41,5.90
2021,12,03,14,42,5.90
2021,12,03,14,43,5.90
2021,12,03,14,44,5.90
2021,12,03,14,45,5.90
2021,12,03,14,46,6.00
2021,12,03,14,47,6.00
2021,12,03,14,48,6.00
2021,12,03,14,49,5.90
2021,12,03,14,50,5.90
2021,12,03,14,51,5.90
2021,12,03,14,52,5.90
2021,12,03,14,53,5.90
2021,12,03,14,54,5.90
2021,12,03,14,55,5.90
2021,12,03,14,56,5.90
2021,12,03,14,57,5.90
2021,12,03,14,58,5.90
2021,12,03,14,59,5.90
2021,12,03,15,00,5.90
2021,12,03,15,01,5.90
2021,12,03,15,02,5.90
2021,12,03,15,03,5.90
2021,12,03,15,04,5.90
2021,12,03,15,05,6.00
2021,12,03,15,06,6.00
2021,12,03,15,07,6.00
2021,12,03,15,08,6.00
2021,12,03,15,09,5.90
2021,12,03,15,10,5.90
2021,12,03,15,11,5.90
2021,12,03,15,12,5.90
2021,12,03,15,13,5.90
2021,12,03,15,14,5.90
2021,12,03,15,15,5.80
2021,12,03,15,16,5.80
2021,12,03,15,17,5.80
2021,12,03,15,18,5.80
2021,12,03,15,19,5.80
2021,12,03,15,20,5.80
2021,12,03,15,21,5.80
2021,12,03,15,22,5.70
2021,12,03,15,23,5.70
2021,12,03,15,24,5.70
2021,12,03,15,25,5.70
2021,12,03,15,26,5.70
2021,12,03,15,27,5.70
2021,12,03,15,28,5.70
2021,12,03,15,29,5.70
2021,12,03,15,30,5.70
2021,12,03,15,31,5.70
2021,12,03,15,32,5.70
2021,12,03,15,33,5.70
2021,12,03,15,34,5.60
2021,12,03,15,35,5.60
2021,12,03,15,36,5.60
2021,12,03,15,37,5.60
2021,12,03,15,38,5.60
2021,12,03,15,39,5.60
2021,12,03,15,40,5.60
2021,12,03,15,41,5.50
2021,12,03,15,42,5.50
2021,12,03,15,43,5.50
2021,12,03,15,44,5.50
2021,12,03,15,45,5.50
2021,12,03,15,46,5.50
2021,12,03,15,47,5.40
2021,12,03,15,48,5.40
2021,12,03,15,49,5.40
2021,12,03,15,50,5.40
2021,12,03,15,51,5.40
2021,12,03,15,52,5.40
2021,12,03,15,53,5.40
2021,12,03,15,54,5.40
2021,12,03,15,55,5.40
2021,12,03,15,56,5.40
2021,12,03,15,57,5.40
2021,12,03,15,58,5.40
2021,12,03,15,59,5.40
2021,12,03,16,00,5.40
2021,12,03,16,01,5.40
2021,12,03,16,02,5.40
2021,12,03,16,03,5.30
2021,12,03,16,04,5.30
2021,12,03,16,05,5.30
2021,12,03,16,06,5.30
2021,12,03,16,07,5.30
2021,12,03,16,08,5.30
2021,12,03,16,09,5.20
2021,12,03,16,10,5.20
2021,12,03,16,11,5.20
2021,12,03,16,12,5.20
2021,12,03,16,13,5.20
2021,12,03,16,14,5.10
2021,12,03,16,15,5.10
2021,12,03,16,16,5.10
2021,12,03,16,17,5.10
2021,12,03,16,18,5.10
2021,12,03,16,19,5.10
2021,12,03,16,20,5.10
2021,12,03,16,21,5.00
2021,12,03,16,22,5.00
2021,12,03,16,23,5.00
2021,12,03,16,24,5.00
2021,12,03,16,25,4.90
2021,12,03,16,26,4.90
2021,12,03,16,27,4.90
2021,12,03,16,28,4.90
2021,12,03,16,29,4.90
2021,12,03,16,30,4.90
2021,12,03,16,31,4.90
2021,12,03,16,32,4.90
2021,12,03,16,33,4.80
2021,12,03,16,34,4.80
2021,12,03,16,35,4.80
2021,12,03,16,36,4.80
2021,12,03,16,37,4.80
2021,12,03,16,38,4.80
2021,12,03,16,39,4.70
2021,12,03,16,40,4.70
2021,12,03,16,41,4.70
2021,12,03,16,42,4.70
2021,12,03,16,43,4.70
2021,12,03,16,44,4.70
2021,12,03,16,45,4.70
2021,12,03,16,46,4.60
2021,12,03,16,47,4.60
2021,12,03,16,48,4.60
2021,12,03,16,49,4.60
2021,12,03,16,50,4.50
2021,12,03,16,51,4.50
2021,12,03,16,52,4.50
2021,12,03,16,53,4.40
2021,12,03,16,54,4.40
2021,12,03,16,55,4.40
2021,12,03,16,56,4.40
2021,12,03,16,57,4.40
2021,12,03,16,58,4.40
2021,12,03,16,59,4.30
2021,12,03,17,00,4.30
2021,12,03,17,01,4.30
2021,12,03,17,02,4.30
2021,12,03,17,03,4.30
2021,12,03,17,04,4.20
2021,12,03,17,05,4.20
2021,12,03,17,06,4.20
2021,12,03,17,07,4.20
2021,12,03,17,08,4.20
2021,12,03,17,09,4.20
2021,12,03,17,10,4.20
2021,12,03,17,11,4.20
2021,12,03,17,12,4.20
2021,12,03,17,13,4.20
2021,12,03,17,14,4.20
2021,12,03,17,15,4.20
2021,12,03,17,16,4.20
2021,12,03,17,17,4.20
2021,12,03,17,18,4.20
2021,12,03,17,19,4.20
2021,12,03,17,20,4.20
2021,12,03,17,21,4.20
2021,12,03,17,22,4.20
2021,12,03,17,23,4.20
2021,12,03,17,24,4.20
2021,12,03,17,25,4.20
2021,12,03,17,26,4.20
2021,12,03,17,27,4.20
2021,12,03,17,28,4.20
2021,12,03,17,29,4.20
2021,12,03,17,30,4.20
2021,12,03,17,31,4.20
2021,12,03,17,32,4.10
2021,12,03,17,33,4.10
2021,12,03,17,34,4.10
2021,12,03,17,35,4.10
2021,12,03,17,36,4.10
2021,12,03,17,37,4.10
2021,12,03,17,38,4.10
2021,12,03,17,39,4.10
2021,12,03,17,40,4.10
2021,12,03,17,41,4.10
2021,12,03,17,42,4.10
2021,12,03,17,43,4.10
2021,12,03,17,44,4.10
2021,12,03,17,45,4.10
2021,12,03,17,46,4.10
2021,12,03,17,47,4.10
2021,12,03,17,48,4.10
2021,12,03,17,49,4.10
2021,12,03,17,50,4.10
2021,12,03,17,51,4.10
2021,12,03,17,52,4.10
2021,12,03,17,53,4.10
2021,12,03,17,54,4.10
2021,12,03,17,55,4.00
2021,12,03,17,56,4.00
2021,12,03,17,57,4.00
2021,12,03,17,58,4.00
2021,12,03,17,59,3.90
2021,12,03,18,00,3.90
2021,12,03,18,01,3.90
2021,12,03,18,02,3.90
2021,12,03,18,03,3.90
2021,12,03,18,04,3.80
2021,12,03,18,05,3.80
2021,12,03,18,06,3.80
2021,12,03,18,07,3.80
2021,12,03,18,08,3.80
2021,12,03,18,09,3.80
2021,12,03,18,10,3.80
2021,12,03,18,11,3.80
2021,12,03,18,12,3.70
2021,12,03,18,13,3.70
2021,12,03,18,14,3.70
2021,12,03,18,15,3.70
2021,12,03,18,16,3.70
2021,12,03,18,17,3.70
2021,12,03,18,18,3.70
2021,12,03,18,19,3.70
2021,12,03,18,20,3.70
2021,12,03,18,21,3.70
2021,12,03,18,22,3.70
2021,12,03,18,23,3.70
2021,12,03,18,24,3.70
2021,12,03,18,25,3.70
2021,12,03,18,26,3.70
2021,12,03,18,27,3.70
2021,12,03,18,28,3.70
2021,12,03,18,29,3.70
2021,12,03,18,30,3.70
2021,12,03,18,31,3.70
2021,12,03,18,32,3.70
2021,12,03,18,33,3.70
2021,12,03,18,34,3.70
2021,12,03,18,35,3.70
2021,12,03,18,36,3.70
2021,12,03,18,37,3.70
2021,12,03,18,38,3.70
2021,12,03,18,39,3.70
2021,12,03,18,40,3.70
2021,12,03,18,41,3.70
2021,12,03,18,42,3.70
2021,12,03,18,43,3.70
2021,12,03,18,44,3.70
2021,12,03,18,45,3.70
2021,12,03,18,46,3.70
2021,12,03,18,47,3.70
2021,12,03,18,48,3.70
2021,12,03,18,49,3.70
2021,12,03,18,50,3.70
2021,12,03,18,51,3.70
2021,12,03,18,52,3.70
2021,12,03,18,53,3.70
2021,12,03,18,54,3.60
2021,12,03,18,55,3.60
2021,12,03,18,56,3.60
2021,12,03,18,57,3.60
2021,12,03,18,58,3.60
2021,12,03,18,59,3.60
2021,12,03,19,00,3.60
2021,12,03,19,01,3.60
2021,12,03,19,02,3.60
2021,12,03,19,03,3.60
2021,12,03,19,04,3.60
2021,12,03,19,05,3.60
2021,12,03,19,06,3.60
2021,12,03,19,07,3.60
2021,12,03,19,08,3.60
2021,12,03,19,09,3.60
2021,12,03,19,10,3.60
2021,12,03,19,11,3.60
2021,12,03,19,12,3.60
2021,12,03,19,13,3.60
2021,12,03,19,14,3.60
2021,12,03,19,15,3.60
2021,12,03,19,16,3.60
2021,12,03,19,17,3.60
2021,12,03,19,18,3.60
2021,12,03,19,19,3.60
2021,12,03,19,20,3.60
2021,12,03,19,21,3.60
2021,12,03,19,22,3.60
2021,12,03,19,23,3.50
2021,12,03,19,24,3.50
2021,12,03,19,25,3.50
2021,12,03,19,26,3.50
2021,12,03,19,27,3.50
2021,12,03,19,28,3.50
2021,12,03,19,29,3.50
2021,12,03,19,30,3.50
2021,12,03,19,31,3.50
2021,12,03,19,32,3.50
2021,12,03,19,33,3.50
2021,12,03,19,34,3.50
2021,12,03,19,35,3.50
2021,12,03,19,36,3.50
2021,12,03,19,37,3.50
2021,12,03,19,38,3.50
2021,12,03,19,39,3.50
2021,12,03,19,40,3.50
2021,12,03,19,41,3.50
2021,12,03,19,42,3.50
2021,12,03,19,43,3.50
2021,12,03,19,44,3.50
2021,12,03,19,45,3.50
2021,12,03,19,46,3.50
2021,12,03,19,47,3.50
2021,12,03,19,48,3.40
2021,12,03,19,49,3.40
2021,12,03,19,50,3.40
2021,12,03,19,51,3.40
2021,12,03,19,52,3.50
2021,12,03,19,53,3.50
2021,12,03,19,54,3.50
2021,12,03,19,55,3.50
2021,12,03,19,56,3.50
2021,12,03,19,57,3.50
2021,12,03,19,58,3.50
2021,12,03,19,59,3.50
2021,12,03,20,00,3.50
2021,12,03,20,01,3.50
2021,12,03,20,02,3.50
2021,12,03,20,03,3.50
2021,12,03,20,04,3.50
2021,12,03,20,05,3.50
2021,12,03,20,06,3.50
2021,12,03,20,07,3.50
2021,12,03,20,08,3.50
2021,12,03,20,09,3.60
2021,12,03,20,10,3.60
2021,12,03,20,11,3.60
2021,12,03,20,12,3.50
2021,12,03,20,13,3.50
2021,12,03,20,14,3.50
2021,12,03,20,15,3.50
2021,12,03,20,16,3.50
2021,12,03,20,17,3.50
2021,12,03,20,18,3.50
2021,12,03,20,19,3.50
2021,12,03,20,20,3.50
2021,12,03,20,21,3.50
2021,12,03,20,22,3.50
2021,12,03,20,23,3.50
2021,12,03,20,24,3.50
2021,12,03,20,25,3.50
2021,12,03,20,26,3.50
2021,12,03,20,27,3.50
2021,12,03,20,28,3.50
2021,12,03,20,29,3.50
2021,12,03,20,30,3.50
2021,12,03,20,31,3.60
2021,12,03,20,32,3.60
2021,12,03,20,33,3.60
2021,12,03,20,34,3.60
2021,12,03,20,35,3.60
2021,12,03,20,36,3.60
2021,12,03,20,37,3.60
2021,12,03,20,38,3.70
2021,12,03,20,39,3.70
2021,12,03,20,40,3.70
2021,12,03,20,41,3.70
2021,12,03,20,42,3.70
2021,12,03,20,43,3.70
2021,12,03,20,44,3.70
2021,12,03,20,45,3.70
2021,12,03,20,46,3.70
2021,12,03,20,47,3.70
2021,12,03,20,48,3.70
2021,12,03,20,49,3.70
2021,12,03,20,50,3.70
2021,12,03,20,51,3.70
2021,12,03,20,52,3.70
2021,12,03,20,53,3.70
2021,12,03,20,54,3.70
2021,12,03,20,55,3.70
2021,12,03,20,56,3.70
2021,12,03,20,57,3.70
2021,12,03,20,58,3.70
2021,12,03,20,59,3.70
2021,12,03,21,00,3.70
2021,12,03,21,01,3.70
2021,12,03,21,02,3.70
2021,12,03,21,03,3.70
2021,12,03,21,04,3.70
2021,12,03,21,05,3.70
2021,12,03,21,06,3.70
2021,12,03,21,07,3.70
2021,12,03,21,08,3.70
2021,12,03,21,09,3.70
2021,12,03,21,10,3.70
2021,12,03,21,11,3.70
2021,12,03,21,12,3.70
2021,12,03,21,13,3.70
2021,12,03,21,14,3.70
2021,12,03,21,15,3.70
2021,12,03,21,16,3.70
2021,12,03,21,17,3.70
2021,12,03,21,18,3.70
2021,12,03,21,19,3.70
2021,12,03,21,20,3.70
2021,12,03,21,21,3.70
2021,12,03,21,22,3.70
2021,12,03,21,23,3.70
2021,12,03,21,24,3.70
2021,12,03,21,25,3.70
2021,12,03,21,26,3.70
2021,12,03,21,27,3.70
2021,12,03,21,28,3.70
2021,12,03,21,29,3.70
2021,12,03,21,30,3.60
2021,12,03,21,31,3.60
2021,12,03,21,32,3.70
2021,12,03,21,33,3.70
2021,12,03,21,34,3.70
2021,12,03,21,35,3.70
2021,12,03,21,36,3.70
2021,12,03,21,37,3.70
2021,12,03,21,38,3.70
2021,12,03,21,39,3.70
2021,12,03,21,40,3.70
2021,12,03,21,41,3.70
2021,12,03,21,42,3.70
2021,12,03,21,43,3.70
2021,12,03,21,44,3.70
2021,12,03,21,45,3.70
2021,12,03,21,46,3.70
2021,12,03,21,47,3.70
2021,12,03,21,48,3.70
2021,12,03,21,49,3.70
2021,12,03,21,50,3.70
2021,12,03,21,51,3.70
2021,12,03,21,52,3.60
2021,12,03,21,53,3.60
2021,12,03,21,54,3.60
2021,12,03,21,55,3.60
2021,12,03,21,56,3.60
2021,12,03,21,57,3.60
2021,12,03,21,58,3.60
2021,12,03,21,59,3.60
2021,12,03,22,00,3.60
2021,12,03,22,01,3.60
2021,12,03,22,02,3.60
2021,12,03,22,03,3.60
2021,12,03,22,04,3.60
2021,12,03,22,05,3.60
2021,12,03,22,06,3.60
2021,12,03,22,07,3.60
2021,12,03,22,08,3.60
2021,12,03,22,09,3.50
2021,12,03,22,10,3.50
2021,12,03,22,11,3.50
2021,12,03,22,12,3.50
2021,12,03,22,13,3.50
2021,12,03,22,14,3.50
2021,12,03,22,15,3.50
2021,12,03,22,16,3.50
2021,12,03,22,17,3.50
2021,12,03,22,18,3.50
2021,12,03,22,19,3.50
2021,12,03,22,20,3.50
2021,12,03,22,21,3.50
2021,12,03,22,22,3.50
2021,12,03,22,23,3.50
2021,12,03,22,24,3.50
2021,12,03,22,25,3.50
2021,12,03,22,26,3.60
2021,12,03,22,27,3.50
2021,12,03,22,28,3.50
2021,12,03,22,29,3.60
2021,12,03,22,30,3.60
2021,12,03,22,31,3.60
2021,12,03,22,32,3.50
2021,12,03,22,33,3.50
2021,12,03,22,34,3.50
2021,12,03,22,35,3.50
2021,12,03,22,36,3.50
2021,12,03,22,37,3.50
2021,12,03,22,38,3.50
2021,12,03,22,39,3.50
2021,12,03,22,40,3.40
2021,12,03,22,41,3.40
2021,12,03,22,42,3.40
2021,12,03,22,43,3.40
2021,12,03,22,44,3.40
2021,12,03,22,45,3.40
2021,12,03,22,46,3.40
2021,12,03,22,47,3.40
2021,12,03,22,48,3.40
2021,12,03,22,49,3.40
2021,12,03,22,50,3.40
2021,12,03,22,51,3.40
2021,12,03,22,52,3.50
2021,12,03,22,53,3.50
2021,12,03,22,54,3.50
2021,12,03,22,55,3.50
2021,12,03,22,56,3.50
2021,12,03,22,57,3.50
2021,12,03,22,58,3.50
2021,12,03,22,59,3.50
2021,12,03,23,00,3.50
2021,12,03,23,01,3.60
2021,12,03,23,02,3.60
2021,12,03,23,03,3.60
2021,12,03,23,04,3.60
2021,12,03,23,05,3.60
2021,12,03,23,06,3.60
2021,12,03,23,07,3.60
2021,12,03,23,08,3.60
2021,12,03,23,09,3.60
2021,12,03,23,10,3.60
2021,12,03,23,11,3.60
2021,12,03,23,12,3.60
2021,12,03,23,13,3.60
2021,12,03,23,14,3.60
2021,12,03,23,15,3.60
2021,12,03,23,16,3.60
2021,12,03,23,17,3.60
2021,12,03,23,18,3.60
2021,12,03,23,19,3.60
2021,12,03,23,20,3.60
2021,12,03,23,21,3.50
2021,12,03,23,22,3.50
2021,12,03,23,23,3.50
2021,12,03,23,24,3.50